When you browse on this site, cookies collect data to enhance your experience and personalize the content and advertising you see.
Visit our Privacy Policy to learn more. By continuing to use the site, you agree to this use of cookies and data.
  • In Netherlands
  • List of Countries
  • For 7 days
  • Water Temperature
  • Weather Map
  • Weather Widgets
  • user-avatar
    Login

    Hourly Weather Roeselare

    Today, 4 April, Saturday

    Time Temperature Precipitation Wind Pressure Humidity
    00:00 +4°C° 0 mm 3 mps 764 mmHg 69%
    01:00 +5°C° 0 mm 2 mps 764 mmHg 69%
    02:00 +6°C° 0 mm 2 mps 764 mmHg 69%
    03:00 +6°C° 0 mm 2 mps 764 mmHg 69%
    04:00 +5°C° 0 mm 2 mps 764 mmHg 73%
    05:00 +5°C° 0 mm 2 mps 765 mmHg 76%
    06:00 +5°C° 0 mm 2 mps 765 mmHg 77%
    07:00 +7°C° 0 mm 2 mps 765 mmHg 73%
    08:00 +8°C° 0 mm 3 mps 765 mmHg 69%
    09:00 +10°C° 0 mm 3 mps 765 mmHg 65%
    10:00 +11°C° 0 mm 3 mps 765 mmHg 61%
    11:00 +13°C° 0 mm 3 mps 765 mmHg 57%
    12:00 +14°C° 0 mm 3 mps 765 mmHg 53%
    13:00 +14°C° 0 mm 3 mps 764 mmHg 51%
    14:00 +16°C° 0 mm 3 mps 764 mmHg 49%
    15:00 +16°C° 0 mm 2 mps 764 mmHg 48%
    16:00 +14°C° 0 mm 3 mps 764 mmHg 53%
    17:00 +13°C° 0 mm 3 mps 764 mmHg 58%
    18:00 +12°C° 0 mm 3 mps 764 mmHg 64%
    19:00 +11°C° 0 mm 3 mps 764 mmHg 66%
    20:00 +10°C° 0 mm 3 mps 764 mmHg 68%
    21:00 +9°C° 0 mm 3 mps 765 mmHg 70%
    22:00 +8°C° 0 mm 3 mps 764 mmHg 72%
    23:00 +7°C° 0 mm 3 mps 764 mmHg 74%

    Tomorrow, 5 April, Sunday

    Time Temperature Precipitation Wind Pressure Humidity
    00:00 +7°C° 0 mm 3 mps 764 mmHg 76%
    01:00 +5°C° 0 mm 3 mps 764 mmHg 77%
    02:00 +5°C° 0 mm 3 mps 764 mmHg 77%
    03:00 +5°C° 0 mm 3 mps 763 mmHg 77%
    04:00 +5°C° 0 mm 4 mps 763 mmHg 79%
    05:00 +5°C° 0 mm 4 mps 763 mmHg 80%
    06:00 +4°C° 0 mm 4 mps 763 mmHg 82%
    07:00 +7°C° 0 mm 4 mps 762 mmHg 76%
    08:00 +9°C° 0 mm 5 mps 762 mmHg 71%
    09:00 +12°C° 0 mm 5 mps 762 mmHg 65%
    10:00 +14°C° 0 mm 5 mps 762 mmHg 62%
    11:00 +15°C° 0 mm 5 mps 761 mmHg 58%
    12:00 +17°C° 0 mm 6 mps 761 mmHg 54%
    13:00 +17°C° 0 mm 5 mps 761 mmHg 54%
    14:00 +19°C° 0 mm 5 mps 760 mmHg 54%
    15:00 +19°C° 0 mm 5 mps 760 mmHg 53%
    16:00 +17°C° 0 mm 5 mps 760 mmHg 59%
    17:00 +16°C° 0 mm 5 mps 759 mmHg 64%
    18:00 +15°C° 0 mm 4 mps 759 mmHg 70%
    19:00 +14°C° 0 mm 4 mps 759 mmHg 70%
    20:00 +13°C° 0 mm 4 mps 760 mmHg 70%
    21:00 +12°C° 0 mm 4 mps 760 mmHg 70%
    22:00 +11°C° 0 mm 4 mps 760 mmHg 72%
    23:00 +11°C° 0 mm 4 mps 760 mmHg 74%

    Day after tomorrow, 6 April, Monday

    Time Temperature Precipitation Wind Pressure Humidity
    00:00 +10°C° 0 mm 4 mps 760 mmHg 77%
    01:00 +10°C° 0 mm 4 mps 760 mmHg 77%
    02:00 +10°C° 0 mm 4 mps 760 mmHg 76%
    03:00 +8°C° 0 mm 4 mps 760 mmHg 76%
    04:00 +8°C° 0 mm 4 mps 760 mmHg 77%
    05:00 +8°C° 0 mm 5 mps 760 mmHg 78%
    06:00 +8°C° 0 mm 5 mps 760 mmHg 78%
    07:00 +10°C° 0 mm 5 mps 761 mmHg 72%
    08:00 +12°C° 0 mm 5 mps 761 mmHg 66%
    09:00 +14°C° 0 mm 6 mps 761 mmHg 60%
    10:00 +14°C° 0 mm 6 mps 762 mmHg 58%
    11:00 +15°C° 0 mm 6 mps 762 mmHg 56%
    12:00 +16°C° 0 mm 5 mps 762 mmHg 54%
    13:00 +15°C° 0 mm 5 mps 763 mmHg 56%
    14:00 +15°C° 0 mm 5 mps 763 mmHg 58%
    15:00 +15°C° 0 mm 4 mps 763 mmHg 61%
    16:00 +14°C° 0.3 mm 4 mps 764 mmHg 70%
    17:00 +12°C° 0.3 mm 3 mps 764 mmHg 79%
    18:00 +11°C° 0.3 mm 3 mps 765 mmHg 88%
    19:00 +10°C° 0.2 mm 3 mps 766 mmHg 89%
    20:00 +10°C° 0.2 mm 2 mps 766 mmHg 91%
    21:00 +10°C° 0.2 mm 2 mps 767 mmHg 92%
    22:00 +9°C° 0 mm 2 mps 768 mmHg 92%
    23:00 +8°C° 0 mm 2 mps 768 mmHg 92%

    7 April, Tuesday

    Time Temperature Precipitation Wind Pressure Humidity
    00:00 +8°C° 0 mm 2 mps 768 mmHg 92%
    01:00 +8°C° 0 mm 1 mps 769 mmHg 91%
    02:00 +8°C° 0 mm 1 mps 769 mmHg 91%
    03:00 +8°C° 0 mm 1 mps 769 mmHg 90%
    04:00 +8°C° 0 mm 1 mps 769 mmHg 90%
    05:00 +8°C° 0 mm 1 mps 770 mmHg 90%
    06:00 +8°C° 0 mm 1 mps 770 mmHg 90%
    07:00 +10°C° 0 mm 1 mps 770 mmHg 84%
    08:00 +12°C° 0 mm 1 mps 771 mmHg 78%
    09:00 +14°C° 0 mm 1 mps 771 mmHg 71%
    10:00 +15°C° 0 mm 1 mps 771 mmHg 67%
    11:00 +16°C° 0 mm 2 mps 771 mmHg 63%
    12:00 +17°C° 0 mm 2 mps 771 mmHg 59%
    13:00 +17°C° 0 mm 2 mps 771 mmHg 60%
    14:00 +17°C° 0 mm 2 mps 770 mmHg 61%
    15:00 +17°C° 0 mm 2 mps 770 mmHg 62%
    16:00 +16°C° 0 mm 2 mps 770 mmHg 66%
    17:00 +15°C° 0 mm 2 mps 770 mmHg 70%
    18:00 +14°C° 0 mm 2 mps 770 mmHg 75%
    19:00 +13°C° 0 mm 2 mps 770 mmHg 78%
    20:00 +12°C° 0 mm 2 mps 771 mmHg 81%
    21:00 +10°C° 0 mm 2 mps 771 mmHg 84%
    22:00 +10°C° 0 mm 2 mps 771 mmHg 85%
    23:00 +11°C° 0 mm 1 mps 771 mmHg 86%

    8 April, Wednesday

    Time Temperature Precipitation Wind Pressure Humidity
    00:00 +11°C° 0 mm 1 mps 771 mmHg 86%
    01:00 +11°C° 0 mm 1 mps 771 mmHg 87%
    02:00 +11°C° 0 mm 1 mps 771 mmHg 87%
    03:00 +10°C° 0 mm 1 mps 770 mmHg 88%
    04:00 +10°C° 0 mm 1 mps 770 mmHg 88%
    05:00 +11°C° 0 mm 1 mps 770 mmHg 88%
    06:00 +11°C° 0 mm 1 mps 770 mmHg 89%
    07:00 +12°C° 0 mm 1 mps 770 mmHg 83%
    08:00 +14°C° 0 mm 1 mps 770 mmHg 77%
    09:00 +16°C° 0 mm 2 mps 770 mmHg 71%
    10:00 +17°C° 0 mm 2 mps 770 mmHg 67%
    11:00 +18°C° 0 mm 2 mps 770 mmHg 63%
    12:00 +19°C° 0 mm 2 mps 770 mmHg 59%
    13:00 +19°C° 0 mm 3 mps 770 mmHg 60%
    14:00 +19°C° 0 mm 3 mps 769 mmHg 60%
    15:00 +19°C° 0 mm 4 mps 769 mmHg 60%
    16:00 +17°C° 0 mm 4 mps 769 mmHg 66%
    17:00 +15°C° 0 mm 4 mps 769 mmHg 71%
    18:00 +13°C° 0 mm 4 mps 769 mmHg 76%
    19:00 +12°C° 0 mm 4 mps 769 mmHg 78%
    20:00 +11°C° 0 mm 3 mps 770 mmHg 79%
    21:00 +10°C° 0 mm 3 mps 770 mmHg 80%
    22:00 +10°C° 0 mm 3 mps 770 mmHg 81%
    23:00 +9°C° 0 mm 2 mps 770 mmHg 82%

    9 April, Thursday

    Time Temperature Precipitation Wind Pressure Humidity
    00:00 +9°C° 0 mm 2 mps 770 mmHg 83%
    01:00 +9°C° 0 mm 2 mps 770 mmHg 85%
    02:00 +9°C° 0 mm 2 mps 770 mmHg 88%
    03:00 +9°C° 0 mm 2 mps 770 mmHg 90%
    04:00 +9°C° 0 mm 2 mps 770 mmHg 91%
    05:00 +9°C° 0 mm 2 mps 770 mmHg 93%
    06:00 +9°C° 0 mm 2 mps 770 mmHg 94%
    07:00 +12°C° 0 mm 2 mps 770 mmHg 87%
    08:00 +13°C° 0 mm 3 mps 770 mmHg 81%
    09:00 +16°C° 0 mm 3 mps 769 mmHg 74%
    10:00 +17°C° 0 mm 3 mps 769 mmHg 68%
    11:00 +18°C° 0 mm 3 mps 769 mmHg 63%
    12:00 +20°C° 0 mm 3 mps 769 mmHg 57%
    13:00 +20°C° 0 mm 3 mps 768 mmHg 56%
    14:00 +20°C° 0 mm 3 mps 768 mmHg 55%
    15:00 +20°C° 0 mm 3 mps 768 mmHg 55%
    16:00 +19°C° 0 mm 3 mps 767 mmHg 60%
    17:00 +18°C° 0 mm 3 mps 767 mmHg 65%
    18:00 +16°C° 0 mm 3 mps 767 mmHg 70%
    19:00 +16°C° 0 mm 3 mps 767 mmHg 72%
    20:00 +14°C° 0 mm 3 mps 767 mmHg 73%
    21:00 +14°C° 0 mm 3 mps 767 mmHg 74%
    22:00 +13°C° 0 mm 3 mps 767 mmHg 75%
    23:00 +13°C° 0 mm 3 mps 767 mmHg 76%
    Show more